Flag for USA

Past Weather in Temecula, California, USA — Yesterday and Last 2 Weeks

Now
69 °F

Clear.


Feels Like: 69 °F
Forecast: 92 / 61 °F
Wind: 3 mph from West

Location: Oceanside - Camp Pendleton

Current Time: Jul 12, 2020 at 11:25:03 pm

Latest Report: Jul 12, 2020 at 9:55 pm


Visibility: 9 mi

Pressure: 29.86 "Hg

Humidity: 76%

Dew Point: 61 °F

Location of TemeculaLocation

Past Weather in Temecula — Graph

°F

Temecula Temperature Yesterday

Maximum temperature yesterday: 91 °F (at 12:55 pm)
Minimum temperature yesterday: 61 °F (at 5:01 am)
Average temperature yesterday: 73 °F

High & Low Weather Summary for the Past Weeks

 TemperatureHumidityPressure
High91 °F (Jul 11, 12:55 pm)87% (Jun 28, 11:55 pm)30.01 "Hg (Jun 28, 11:55 pm)
Low50 °F (Jul 3, 5:55 am)17% (Jul 5, 10:55 am)29.79 "Hg (Jun 28, 5:55 pm)
Average69 °F67%29.90 "Hg
* Reported Jun 27 9:55 pm — Jul 12 9:55 pm, Temecula. Weather by CustomWeather, © 2020

Note: Actual official high and low records may vary slightly from our data, if they occured in-between our weather recording intervals... More about our weather records

Temecula Weather History for the Previous 24 Hours

Scroll right to see more
 ConditionsComfort  
Time TempWeatherWind HumidityBarometerVisibility
9:55 pm
Sun, Jul 12
69 °FClear.3 mph76%29.86 "Hg9 mi
8:55 pm72 °FClear.3 mph73%29.85 "Hg9 mi
7:55 pm74 °FSunny.3 mph69%29.84 "Hg9 mi
6:55 pm77 °FSunny.6 mph56%29.83 "Hg10 mi
5:55 pm81 °FSunny.6 mph44%29.81 "Hg10 mi
4:55 pm81 °FSunny.10 mph41%29.81 "Hg10 mi
3:55 pm84 °FSunny.13 mph45%29.82 "Hg10 mi
2:55 pm86 °FSunny.10 mph37%29.83 "Hg10 mi
1:55 pm88 °FSunny.8 mph27%29.84 "Hg10 mi
12:55 pm87 °FSunny.12 mph35%29.85 "Hg10 mi
11:55 am88 °FSunny.9 mph30%29.87 "Hg10 mi
10:55 am87 °FSunny.8 mph36%29.88 "Hg10 mi
9:55 am87 °FSunny.3 mph35%29.88 "Hg10 mi
8:55 am80 °FSunny.No wind45%29.90 "Hg10 mi
7:55 am71 °FSunny.No wind59%29.92 "Hg10 mi
6:55 am66 °FSunny.No wind73%29.93 "Hg10 mi
5:55 am61 °FSunny.No wind78%29.91 "Hg10 mi
4:55 am63 °FPassing clouds.No wind78%29.91 "Hg10 mi
4:26 am63 °FPassing clouds.3 mph81%29.91 "Hg10 mi
3:55 am63 °FClear.5 mph78%29.92 "Hg10 mi
2:55 am65 °FClear.No wind78%29.93 "Hg10 mi
1:55 am64 °FClear.No wind78%29.93 "Hg10 mi
12:55 am65 °FClear.No wind81%29.95 "Hg10 mi
11:55 pm
Sat, Jul 11
68 °FClear.No wind76%29.96 "Hg10 mi
Weather by CustomWeather, © 2020

See weather overview